CW0630 Weather Reports


Display with metric or nautical units.
time (UTC)temp
F
wind
direction
speed
MPH
gust
MPH
rain 1hr
in
rain 24hr
in
rain mn
in
humidity
%
barometer
mb
20180225173524 58 195 3.0 9.0 0.00 0.03 0.00 92 1014.7
20180225173025 58 158 4.0 11.0 0.00 0.03 0.00 93 1014.9
20180225172531 58 195 4.0 11.0 0.00 0.03 0.00 93 1015.0
20180225172029 58 187 4.0 10.0 0.00 0.03 0.00 93 1015.3
20180225171514 57 197 6.0 10.0 0.00 0.03 0.00 93 1015.4
20180225171021 57 200 4.0 10.0 0.00 0.03 0.00 94 1015.0
20180225170525 57 204 5.0 10.0 0.00 0.03 0.00 94 1015.0
20180225170028 56 108 4.0 10.0 0.00 0.03 0.00 94 1015.0
20180225165513 56 186 4.0 7.0 0.00 0.03 0.00 95 1015.3
20180225165013 56 198 4.0 8.0 0.00 0.03 0.00 95 1015.4
20180225164519 56 162 5.0 8.0 0.00 0.03 0.00 95 1015.5
20180225164021 56 177 4.0 7.0 0.00 0.03 0.00 95 1015.8
20180225163525 56 148 4.0 7.0 0.00 0.03 0.00 96 1016.0
20180225163028 55 195 1.0 4.0 0.00 0.03 0.00 96 1015.9
20180225162515 54 140 1.0 3.0 0.00 0.03 0.00 97 1016.0
20180225162015 54 143 1.0 2.0 0.00 0.03 0.00 96 1016.1
20180225161525 54 233 1.0 2.0 0.00 0.03 0.00 96 1016.5
20180225161024 54 237 1.0 2.0 0.00 0.03 0.00 97 1016.8
20180225160526 54 241 1.0 3.0 0.00 0.03 0.00 97 1017.0
20180225160028 54 258 1.0 3.0 0.00 0.03 0.00 97 1017.2
20180225155514 53 316 1.0 3.0 0.00 0.03 0.00 97 1017.0
20180225155014 53 316 1.0 3.0 0.00 0.03 0.00 97 1016.9
20180225154519 53 29 2.0 3.0 0.00 0.03 0.00 98 1016.5
20180225154019 53 312 1.0 3.0 0.00 0.03 0.00 98 1017.0
20180225153524 53 318 1.0 3.0 0.00 0.03 0.00 98 1016.9
20180225153025 53 352 1.0 3.0 0.00 0.03 0.00 98 1017.1
20180225152532 53 26 1.0 14.0 0.00 0.03 0.00 98 1017.1
20180225152025 53 328 2.0 16.0 0.00 0.03 0.00 98 1017.4
20180225151513 53 329 6.0 15.0 0.00 0.03 0.00 98 1017.7
20180225151017 54 297 4.0 14.0 0.00 0.03 0.00 99 1017.6
20180225150519 54 276 5.0 14.0 0.00 0.03 0.00 99 1017.1
20180225150020 54 295 3.0 10.0 0.00 0.03 0.00 99 1016.5
20180225145527 55 318 5.0 10.0 0.00 0.03 0.00 100 1016.3
20180225145027 55 276 5.0 8.0 0.00 0.03 0.00 100 1016.2
20180225144515 55 296 5.0 8.0 0.00 0.03 0.00 100 1016.0
20180225144017 56 296 2.0 6.0 0.00 0.03 0.00 100 1015.9
20180225143520 56 283 3.0 7.0 0.00 0.03 0.00 100 1015.8
20180225143020 56 306 3.0 7.0 0.00 0.03 0.00 100 1015.6
20180225142527 56 269 4.0 7.0 0.00 0.03 0.00 100 1015.4
20180225142027 56 292 2.0 3.0 0.00 0.03 0.00 100 1015.3
20180225141516 56 245 1.0 4.0 0.00 0.03 0.00 100 1015.1
20180225141018 56 327 2.0 4.0 0.00 0.03 0.00 100 1015.0
20180225140522 56 270 0.0 0.0 0.00 0.03 0.00 100 1014.8
20180225140024 55 270 0.0 0.0 0.00 0.03 0.00 100 1014.6
20180225135531 55 270 0.0 1.0 0.00 0.03 0.00 100 1014.7
20180225135012 55 270 0.0 2.0 0.00 0.03 0.00 100 1014.7
20180225134517 55 237 1.0 2.0 0.00 0.03 0.00 100 1014.7
20180225134020 55 206 0.0 0.0 0.00 0.03 0.00 100 1014.7
20180225133525 55 206 0.0 0.0 0.00 0.03 0.00 100 1014.5
20180225133027 55 206 0.0 0.0 0.00 0.03 0.00 100 1014.5
20180225132518 55 206 0.0 0.0 0.00 0.03 0.00 100 1014.6
20180225132019 55 206 0.0 0.0 0.00 0.03 0.00 100 1014.6
20180225131525 54 206 0.0 0.0 0.00 0.03 0.00 100 1014.7
20180225131027 54 206 0.0 1.0 0.00 0.03 0.00 100 1014.7
20180225130511 54 206 0.0 2.0 0.00 0.03 0.00 100 1014.8
20180225130014 54 206 1.0 2.0 0.00 0.03 0.00 100 1014.8
20180225125521 54 206 0.0 1.0 0.00 0.03 0.00 100 1014.8
20180225125022 53 206 0.0 1.0 0.00 0.03 0.00 100 1014.7
20180225124530 53 206 0.0 2.0 0.00 0.03 0.00 100 1014.7
20180225124013 53 206 0.0 2.0 0.00 0.03 0.00 100 1014.8
20180225123518 53 206 0.0 0.0 0.00 0.03 0.00 100 1014.7
20180225123024 53 206 0.0 1.0 0.00 0.03 0.00 100 1014.7
20180225122530 53 206 0.0 2.0 0.00 0.03 0.00 100 1014.7
20180225122030 53 206 1.0 4.0 0.00 0.03 0.00 100 1014.6
20180225121516 53 206 2.0 4.0 0.00 0.03 0.00 100 1014.7
20180225121019 53 64 2.0 3.0 0.00 0.03 0.00 100 1014.5
20180225120523 53 25 0.0 3.0 0.00 0.03 0.00 100 1014.8
20180225120026 53 21 2.0 3.0 0.00 0.03 0.00 100 1014.6
20180225115512 52 86 0.0 1.0 0.00 0.03 0.00 100 1014.6
20180225115012 52 86 0.0 1.0 0.00 0.03 0.00 100 1014.5
20180225114519 52 86 0.0 0.0 0.00 0.03 0.00 100 1014.6
20180225114023 52 86 0.0 0.0 0.00 0.03 0.00 100 1014.8
20180225113531 52 86 0.0 0.0 0.00 0.03 0.00 100 1015.0
20180225113014 52 86 0.0 0.0 0.00 0.03 0.00 100 1015.0
20180225112520 52 86 0.0 0.0 0.00 0.03 0.00 100 1015.0
20180225112020 52 86 0.0 0.0 0.00 0.03 0.00 100 1015.0
20180225111526 52 86 0.0 0.0 0.00 0.03 0.00 100 1015.0
20180225111028 52 86 0.0 0.0 0.00 0.03 0.00 100 1015.1
20180225110512 52 86 0.0 0.0 0.00 0.03 0.00 100 1015.2
20180225110015 52 86 0.0 2.0 0.00 0.03 0.00 99 1015.1
20180225105523 52 86 0.0 2.0 0.00 0.03 0.00 100 1015.1
20180225105022 52 86 0.0 2.0 0.00 0.03 0.00 99 1015.1
20180225104512 52 86 1.0 3.0 0.00 0.03 0.00 99 1015.0
20180225104014 52 86 1.0 3.0 0.00 0.03 0.00 99 1015.0
20180225103520 52 84 0.0 1.0 0.00 0.03 0.00 99 1015.0
20180225103022 52 84 0.0 3.0 0.00 0.03 0.00 99 1015.2
20180225102529 52 84 1.0 3.0 0.00 0.03 0.00 99 1015.3
20180225102032 52 96 1.0 3.0 0.00 0.03 0.00 99 1015.5
20180225101516 52 247 1.0 3.0 0.00 0.03 0.00 99 1015.6
20180225101018 52 53 0.0 3.0 0.00 0.03 0.00 99 1015.5
20180225100524 52 53 1.0 3.0 0.00 0.03 0.00 99 1015.4
20180225100025 52 16 0.0 2.0 0.00 0.03 0.00 99 1015.5
20180225095512 52 16 0.0 3.0 0.00 0.03 0.00 99 1015.6
20180225095017 52 16 1.0 3.0 0.00 0.03 0.00 99 1015.6
20180225094524 52 19 2.0 3.0 0.00 0.03 0.00 99 1015.6
20180225094026 52 10 2.0 3.0 0.00 0.03 0.00 99 1015.6
20180225093530 52 19 0.0 0.0 0.00 0.03 0.00 99 1015.8
20180225093031 52 19 0.0 0.0 0.00 0.03 0.00 99 1015.9
20180225092518 52 19 0.0 0.0 0.00 0.03 0.00 99 1015.9
20180225091028 52 19 1.0 2.0 0.00 0.03 0.00 99 1016.2
20180225090513 52 20 0.0 2.0 0.00 0.03 0.00 99 1016.2
20180225090015 52 24 1.0 2.0 0.00 0.03 0.00 99 1016.4
20180225085526 52 33 0.0 2.0 0.00 0.03 0.00 99 1016.3
20180225085027 52 66 0.0 2.0 0.00 0.03 0.00 99 1016.3
20180225084514 52 66 0.0 2.0 0.00 0.03 0.00 99 1016.2
20180225084016 52 66 0.0 2.0 0.00 0.03 0.00 99 1016.2
20180225083521 52 66 1.0 2.0 0.00 0.03 0.00 99 1016.1
20180225083024 52 66 0.0 2.0 0.00 0.03 0.00 99 1016.3
20180225082530 52 66 0.0 2.0 0.00 0.03 0.00 99 1016.3
20180225082033 52 66 0.0 0.0 0.00 0.03 0.00 99 1016.2
20180225081516 52 66 0.0 2.0 0.00 0.03 0.00 99 1016.4
20180225081019 52 66 0.0 2.0 0.00 0.03 0.00 99 1016.4
20180225080524 52 66 0.0 2.0 0.00 0.03 0.00 99 1016.5
20180225080012 52 66 0.0 2.0 0.00 0.03 0.00 99 1016.6
20180225075518 52 67 0.0 2.0 0.00 0.03 0.00 99 1016.7
20180225075017 52 83 1.0 2.0 0.00 0.03 0.00 99 1016.7
20180225074524 52 83 1.0 3.0 0.00 0.03 0.00 99 1016.7
20180225074027 52 91 1.0 4.0 0.00 0.03 0.00 99 1016.8
20180225073512 52 99 3.0 4.0 0.00 0.03 0.00 99 1016.8
20180225073015 52 114 1.0 3.0 0.00 0.03 0.00 99 1016.9
20180225072523 52 81 2.0 3.0 0.00 0.03 0.00 99 1016.9
20180225072021 52 95 1.0 3.0 0.00 0.03 0.00 99 1016.9
20180225071527 52 95 2.0 3.0 0.00 0.03 0.00 99 1017.2
20180225071029 52 95 1.0 2.0 0.00 0.03 0.00 99 1017.4
20180225070516 52 96 0.0 3.0 0.00 0.03 0.00 99 1017.6
20180225070019 52 96 1.0 3.0 0.00 0.03 0.00 98 1017.6
20180225065526 52 46 0.0 2.0 0.00 0.03 0.00 98 1017.6
20180225065026 52 46 0.0 3.0 0.00 0.03 0.00 98 1017.6
20180225064511 52 46 1.0 3.0 0.00 0.03 0.00 98 1017.7
20180225064013 52 86 1.0 4.0 0.00 0.03 0.00 98 1017.7
20180225063516 52 31 2.0 4.0 0.00 0.03 0.00 98 1017.7
20180225063020 52 37 1.0 4.0 0.00 0.03 0.00 98 1017.8
20180225062527 52 36 2.0 4.0 0.00 0.03 0.00 98 1018.0
20180225062028 52 33 2.0 4.0 0.00 0.03 0.00 98 1017.9
20180225061515 52 62 2.0 4.0 0.00 0.03 0.00 98 1017.9
20180225061021 52 48 1.0 4.0 0.00 0.03 0.00 98 1018.1
20180225060525 52 40 2.0 4.0 0.00 0.03 0.00 98 1018.2
20180225060006 52 23 0.0 2.0 0.00 0.03 0.00 98 1018.5
20180225055512 52 29 1.0 4.0 0.00 0.03 0.00 98 1018.6
20180225055013 52 15 1.0 4.0 0.00 0.03 0.00 98 1018.6
20180225054458 52 357 1.0 4.0 0.00 0.03 0.00 97 1018.7
20180225054001 52 19 2.0 5.0 0.00 0.03 0.00 97 1018.8
20180225053506 52 97 2.0 6.0 0.00 0.03 0.00 97 1018.8
20180225053008 52 74 2.0 7.0 0.00 0.03 0.00 97 1018.9
20180225052514 52 330 3.0 5.0 0.00 0.03 0.00 97 1018.9
20180225051957 52 38 3.0 6.0 0.00 0.03 0.00 97 1018.8
20180225051503 52 48 2.0 7.0 0.00 0.03 0.00 97 1018.8
20180225051007 52 25 1.0 6.0 0.00 0.03 0.00 97 1018.7
20180225050509 52 98 3.0 6.0 0.00 0.03 0.00 97 1018.8
20180225050043 52 61 3.0 8.0 0.00 0.03 0.03 96 1018.9
20180225045514 53 43 4.0 8.0 0.00 0.03 0.03 96 1018.9
20180225045014 53 58 3.0 6.0 0.00 0.03 0.03 96 1018.9
20180225044458 53 2 2.0 5.0 0.00 0.03 0.03 96 1018.8
20180225044000 53 52 2.0 4.0 0.00 0.03 0.03 96 1018.8
20180225043504 53 71 1.0 4.0 0.00 0.03 0.03 96 1018.6
20180225043005 53 48 1.0 6.0 0.00 0.03 0.03 96 1018.7
20180225042509 53 58 3.0 6.0 0.00 0.03 0.03 96 1018.7
20180225042014 53 90 4.0 6.0 0.00 0.03 0.03 96 1018.8
20180225041459 53 27 3.0 11.0 0.00 0.03 0.03 96 1018.8
20180225041000 53 30 4.0 11.0 0.00 0.03 0.03 96 1018.8
20180225040504 53 29 3.0 8.0 0.00 0.03 0.03 96 1018.8
20180225040006 53 116 2.0 4.0 0.00 0.03 0.03 96 1018.8
20180225035511 53 80 2.0 6.0 0.00 0.03 0.03 95 1018.6
20180225035010 53 60 3.0 9.0 0.00 0.03 0.03 95 1018.8
20180225034455 53 50 4.0 10.0 0.00 0.03 0.03 95 1019.0
20180225033956 54 15 3.0 10.0 0.00 0.03 0.03 95 1019.0
20180225033458 54 357 4.0 10.0 0.00 0.03 0.03 95 1019.0
20180225033000 54 32 2.0 8.0 0.00 0.03 0.03 95 1019.0
20180225032509 54 75 3.0 10.0 0.00 0.03 0.03 95 1018.9
20180225032009 54 10 3.0 12.0 0.00 0.03 0.03 95 1019.1
20180225031514 54 2 4.0 12.0 0.00 0.03 0.03 95 1019.2
20180225030956 54 8 6.0 11.0 0.00 0.03 0.03 95 1019.1
20180225030500 54 18 5.0 9.0 0.00 0.03 0.03 94 1019.2
20180225030001 55 33 4.0 9.0 0.01 0.03 0.03 95 1019.2
20180225025508 55 26 4.0 9.0 0.02 0.03 0.03 94 1019.3
20180225025005 55 14 5.0 8.0 0.03 0.03 0.03 94 1019.4
20180225024511 55 12 3.0 6.0 0.03 0.03 0.03 94 1019.4
20180225024012 55 352 3.0 10.0 0.03 0.03 0.03 94 1019.3
20180225023456 55 15 4.0 10.0 0.03 0.03 0.03 94 1019.2
20180225023001 55 2 3.0 8.0 0.03 0.03 0.03 94 1019.2
20180225022505 56 19 4.0 8.0 0.03 0.03 0.03 94 1019.2
20180225021957 56 10 4.0 8.0 0.03 0.03 0.03 93 1019.1
20180225021458 56 33 4.0 6.0 0.03 0.03 0.03 93 1019.1
20180225021015 56 33 4.0 8.0 0.03 0.03 0.03 93 1019.1
20180225020514 56 52 2.0 10.0 0.03 0.03 0.03 92 1019.1
20180225020011 57 357 5.0 10.0 0.02 0.02 0.02 92 1019.3
20180225015513 57 35 4.0 9.0 0.01 0.01 0.01 91 1019.4
20180225015007 57 14 3.0 9.0 0.00 0.00 0.00 90 1019.4
20180225014513 57 352 4.0 9.0 0.00 0.00 0.00 90 1019.2
20180225013956 57 43 4.0 10.0 0.00 0.00 0.00 90 1019.1
20180225013500 58 38 6.0 13.0 0.00 0.00 0.00 90 1019.2
20180225013002 58 2 6.0 13.0 0.00 0.00 0.00 89 1019.2
20180225012511 59 31 5.0 11.0 0.00 0.00 0.00 89 1019.1
20180225012010 59 46 3.0 11.0 0.00 0.00 0.00 89 1019.0
20180225011515 60 33 4.0 11.0 0.00 0.00 0.00 88 1019.1
20180225010956 60 69 3.0 9.0 0.00 0.00 0.00 89 1018.9
20180225010502 60 90 4.0 10.0 0.00 0.00 0.00 89 1019.1
20180225010002 60 27 5.0 11.0 0.00 0.00 0.00 88 1019.1
20180225005508 60 25 4.0 11.0 0.00 0.00 0.00 88 1019.1
20180225005007 61 54 6.0 10.0 0.00 0.00 0.00 88 1019.2
20180225004512 61 72 6.0 11.0 0.00 0.00 0.00 88 1018.9
20180225003955 61 30 4.0 12.0 0.00 0.00 0.00 88 1018.7
20180225003500 61 22 6.0 12.0 0.00 0.00 0.00 87 1018.7
20180225003005 61 7 2.0 14.0 0.00 0.00 0.00 88 1018.7
20180225002511 61 34 6.0 14.0 0.00 0.00 0.00 87 1018.7
20180225002010 62 23 4.0 10.0 0.00 0.00 0.00 87 1018.8
20180225001515 62 10 3.0 11.0 0.00 0.00 0.00 87 1019.0
20180225000956 62 352 6.0 11.0 0.00 0.00 0.00 87 1018.9
20180225000458 63 29 5.0 12.0 0.00 0.00 0.00 87 1018.8
20180225000016 63 77 5.0 12.0 0.00 0.00 0.00 86 1018.7
20180224235459 63 75 4.0 13.0 0.00 0.00 0.00 86 1018.6
20180224234956 64 55 5.0 13.0 0.00 0.00 0.00 85 1018.6
20180224234502 64 16 4.0 6.0 0.00 0.00 0.00 86 1018.6
20180224234003 64 314 3.0 10.0 0.00 0.00 0.00 85 1018.7
20180224233506 64 56 5.0 10.0 0.00 0.00 0.00 85 1018.5
20180224233010 65 347 4.0 9.0 0.00 0.00 0.00 85 1018.5
20180224232456 65 16 5.0 9.0 0.00 0.00 0.00 85 1018.4
20180224231956 66 41 3.0 10.0 0.00 0.00 0.00 84 1018.4
20180224231502 66 12 4.0 10.0 0.00 0.00 0.00 84 1018.3
20180224231004 66 16 5.0 9.0 0.00 0.00 0.00 83 1018.2
20180224230508 67 2 4.0 8.0 0.00 0.00 0.00 82 1018.1
20180224230012 67 16 2.0 5.0 0.00 0.00 0.00 81 1018.0
20180224225455 67 19 2.0 4.0 0.00 0.00 0.00 81 1018.0
20180224224957 67 21 3.0 4.0 0.00 0.00 0.00 81 1017.9
20180224224500 67 29 2.0 3.0 0.00 0.00 0.00 81 1017.8
20180224224003 67 22 3.0 3.0 0.00 0.00 0.00 80 1017.9
20180224223510 67 20 1.0 3.0 0.00 0.00 0.00 80 1017.8
20180224223011 67 19 1.0 3.0 0.00 0.00 0.00 80 1017.6
20180224222456 67 20 1.0 4.0 0.00 0.00 0.00 80 1017.4
20180224221955 68 23 2.0 4.0 0.00 0.00 0.00 79 1017.2
20180224221501 68 59 2.0 4.0 0.00 0.00 0.00 79 1017.3
20180224221002 68 20 1.0 4.0 0.00 0.00 0.00 79 1017.4
20180224220506 68 37 2.0 4.0 0.00 0.00 0.00 78 1017.3
20180224220007 68 50 2.0 5.0 0.00 0.00 0.00 78 1017.3
20180224215513 68 33 1.0 5.0 0.00 0.00 0.00 78 1017.2
20180224215013 68 31 2.0 6.0 0.00 0.00 0.00 78 1017.2
20180224214458 69 50 3.0 6.0 0.00 0.00 0.00 77 1017.2
20180224214004 69 83 1.0 5.0 0.00 0.00 0.00 78 1017.2
20180224213509 69 85 1.0 6.0 0.00 0.00 0.00 77 1017.3
20180224213009 69 100 2.0 6.0 0.00 0.00 0.00 77 1017.3
20180224212515 69 46 3.0 6.0 0.00 0.00 0.00 78 1017.4
20180224212013 69 345 2.0 5.0 0.00 0.00 0.00 78 1017.5
20180224211459 69 29 1.0 6.0 0.00 0.00 0.00 77 1017.5
20180224210959 69 11 3.0 8.0 0.00 0.00 0.00 77 1017.5
20180224210503 69 8 5.0 8.0 0.00 0.00 0.00 76 1017.6
20180224210004 69 357 3.0 8.0 0.00 0.00 0.00 76 1017.6
20180224205509 70 12 3.0 9.0 0.00 0.00 0.00 75 1017.7
20180224205008 70 340 3.0 9.0 0.00 0.00 0.00 75 1017.8
20180224204457 71 345 3.0 5.0 0.00 0.00 0.00 73 1017.9
20180224204000 71 299 3.0 5.0 0.00 0.00 0.00 73 1017.7
20180224203503 72 297 2.0 5.0 0.00 0.00 0.00 73 1017.8
20180224203002 72 312 2.0 5.0 0.00 0.00 0.00 73 1017.9
20180224202508 72 328 3.0 5.0 0.00 0.00 0.00 72 1017.9
20180224202006 72 347 2.0 4.0 0.00 0.00 0.00 72 1017.9
20180224201510 72 301 1.0 4.0 0.00 0.00 0.00 72 1017.9
20180224201012 72 301 1.0 7.0 0.00 0.00 0.00 71 1018.0
20180224200514 72 258 3.0 7.0 0.00 0.00 0.00 71 1018.1
20180224195956 72 250 0.0 5.0 0.00 0.00 0.00 72 1018.2
20180224195501 72 202 1.0 5.0 0.00 0.00 0.00 72 1018.1
20180224194959 72 237 2.0 7.0 0.00 0.00 0.00 71 1018.2
20180224194509 72 209 4.0 7.0 0.00 0.00 0.00 71 1018.2
20180224194010 72 271 1.0 4.0 0.00 0.00 0.00 71 1018.2
20180224193514 72 300 1.0 4.0 0.00 0.00 0.00 71 1018.2
20180224193015 72 254 2.0 6.0 0.00 0.00 0.00 71 1018.4
20180224192500 71 210 3.0 6.0 0.00 0.00 0.00 71 1018.4
20180224191959 71 185 2.0 7.0 0.00 0.00 0.00 72 1018.4
20180224191505 71 275 3.0 7.0 0.00 0.00 0.00 72 1018.5
20180224191006 71 255 3.0 7.0 0.00 0.00 0.00 72 1018.4
20180224190509 72 278 3.0 7.0 0.00 0.00 0.00 72 1018.4
20180224190012 71 216 2.0 6.0 0.00 0.00 0.00 73 1018.5
20180224185457 71 186 2.0 5.0 0.00 0.00 0.00 73 1018.5
20180224185002 71 290 3.0 7.0 0.00 0.00 0.00 73 1018.6
20180224184507 71 231 2.0 7.0 0.00 0.00 0.00 74 1018.6
20180224184008 71 293 4.0 10.0 0.00 0.00 0.00 74 1018.6
20180224183511 71 210 4.0 10.0 0.00 0.00 0.00 73 1018.6
20180224183015 71 248 5.0 11.0 0.00 0.00 0.00 73 1018.6
20180224182500 70 210 4.0 10.0 0.00 0.00 0.00 74 1018.6
20180224182001 70 233 4.0 8.0 0.00 0.00 0.00 74 1018.8
20180224181505 70 199 3.0 10.0 0.00 0.00 0.00 74 1018.8
20180224181006 70 227 3.0 10.0 0.00 0.00 0.00 75 1018.9
20180224180511 70 220 5.0 10.0 0.00 0.00 0.00 75 1019.0
20180224180012 70 199 4.0 11.0 0.00 0.00 0.00 75 1019.0
20180224175502 70 206 7.0 11.0 0.00 0.00 0.00 74 1019.0
20180224175001 71 248 4.0 9.0 0.00 0.00 0.00 75 1019.1
20180224174506 71 212 5.0 10.0 0.00 0.00 0.00 74 1019.2
20180224174008 70 192 6.0 10.0 0.00 0.00 0.00 74 1019.3